QPF
0.00 0.00 0.00 0.00 0.00 0.00 0.00 0.00 0.00 0.00 0.01 0.01 0.02 0.03 0.04 0.05 0.06 0.07 0.07 0.07 0.07 0.06 0.06 0.06 0.06 0.05 0.05 0.05 0.05 0.06 0.06 0.06 0.06 0.04 0.03 0.03 0.03 0.02 0.01 0.00 0.00 0.00 0.00
0.00 0.00 0.00 0.00 0.00 0.00 0.00 0.00 0.00 0.01 0.01 0.01 0.01 0.02 0.02 0.03 0.03 0.04 0.04 0.04 0.04 0.04 0.05 0.06 0.07 0.07 0.08 0.08 0.09 0.10 0.10 0.09 0.08 0.06 0.04 0.03 0.03 0.02 0.01 0.00 0.00 0.00 0.00
0.00 0.00 0.00 0.00 0.00 0.00 0.00 0.00 0.01 0.01 0.01 0.01 0.01 0.01 0.02 0.02 0.02 0.02 0.02 0.03 0.03 0.04 0.05 0.07 0.08 0.10 0.11 0.13 0.14 0.15 0.15 0.12 0.08 0.05 0.03 0.01 0.01 0.01 0.00 0.00 0.00 0.00 0.00
0.00 0.00 0.01 0.01 0.00 0.00 0.01 0.01 0.01 0.01 0.01 0.00 0.01 0.01 0.01 0.02 0.02 0.02 0.03 0.03 0.05 0.06 0.08 0.10 0.13 0.17 0.20 0.21 0.20 0.18 0.14 0.09 0.06 0.03 0.02 0.01 0.00 0.00 0.00 0.00 0.00 0.00 0.00
0.00 0.01 0.01 0.01 0.01 0.01 0.01 0.01 0.01 0.00 0.00 0.00 0.01 0.01 0.02 0.03 0.03 0.04 0.04 0.06 0.08 0.11 0.14 0.17 0.20 0.23 0.23 0.20 0.15 0.11 0.07 0.04 0.03 0.02 0.01 0.00 0.00 0.00 0.00 0.00 0.00 0.00 0.00
0.01 0.01 0.01 0.01 0.02 0.02 0.01 0.01 0.01 0.00 0.01 0.01 0.01 0.02 0.03 0.05 0.08 0.09 0.08 0.08 0.11 0.15 0.17 0.18 0.19 0.18 0.14 0.11 0.08 0.05 0.03 0.02 0.01 0.01 0.01 0.00 0.00 0.00 0.00 0.00 0.00 0.00 0.00
0.01 0.01 0.01 0.02 0.02 0.02 0.02 0.01 0.01 0.02 0.03 0.04 0.05 0.05 0.07 0.11 0.14 0.13 0.14 0.12 0.13 0.15 0.15 0.14 0.11 0.08 0.06 0.04 0.02 0.01 0.01 0.01 0.00 0.00 0.00 0.00 0.00 0.00 0.00 0.01 0.01 0.01 0.01
0.01 0.01 0.01 0.01 0.02 0.03 0.04 0.04 0.05 0.08 0.10 0.12 0.14 0.15 0.16 0.19 0.20 0.17 0.16 0.13 0.12 0.12 0.10 0.07 0.05 0.03 0.02 0.01 0.00 0.00 0.00 0.00 0.00 0.00 0.00 0.00 0.00 0.00 0.01 0.02 0.02 0.01 0.00
0.01 0.01 0.02 0.03 0.04 0.05 0.08 0.12 0.14 0.16 0.19 0.23 0.26 0.27 0.25 0.24 0.22 0.17 0.12 0.10 0.08 0.05 0.03 0.02 0.01 0.00 0.00 0.00 0.00 0.00 0.00 0.00 0.00 0.00 0.00 0.00 0.00 0.01 0.01 0.00 0.00 0.00 0.00
0.02 0.03 0.04 0.05 0.06 0.09 0.14 0.18 0.20 0.21 0.22 0.24 0.26 0.27 0.25 0.21 0.15 0.10 0.06 0.03 0.02 0.01 0.00 0.00 0.00 0.00 0.00 0.00 0.01 0.01 0.00 0.00 0.00 0.00 0.00 0.00 0.00 0.00 0.00 0.00 0.00 0.01 0.01
0.02 0.03 0.04 0.06 0.08 0.11 0.13 0.15 0.16 0.17 0.17 0.17 0.16 0.13 0.10 0.06 0.04 0.02 0.01 0.00 0.00 0.00 0.00 0.00 0.00 0.00 0.00 0.01 0.01 0.00 0.00 0.00 0.00 0.00 0.00 0.00 0.00 0.00 0.00 0.00 0.00 0.00 0.01
0.02 0.02 0.03 0.04 0.06 0.07 0.08 0.09 0.09 0.09 0.08 0.07 0.05 0.03 0.01 0.00 0.00 0.00 0.00 0.00 0.00 0.00 0.00 0.00 0.00 0.00 0.00 0.00 0.00 0.00 0.00 0.00 0.00 0.00 0.00 0.00 0.00 0.00 0.00 0.00 0.00 0.00 0.00
0.01 0.01 0.01 0.02 0.02 0.03 0.03 0.03 0.02 0.01 0.01 0.01 0.00 0.00 0.00 0.00 0.00 0.00 0.00 0.00 0.00 0.00 0.00 0.00 0.00 0.00 0.00 0.00 0.00 0.00 0.00 0.00 0.00 0.00 0.00 0.00 0.00 0.00 0.00 0.00 0.00 0.00 0.00
0.00 0.00 0.00 0.00 0.00 0.00 0.00 0.00 0.00 0.00 0.00 0.00 0.00 0.00 0.00 0.00 0.00 0.00 0.00 0.00 0.00 0.00 0.00 0.00 0.00 0.00 0.00 0.00 0.00 0.00 0.00 0.00 0.00 0.00 0.00 0.00 0.00 0.00 0.00 0.00 0.00 0.00 0.00
0.00 0.00 0.00 0.00 0.00 0.00 0.00 0.00 0.00 0.00 0.00 0.00 0.00 0.00 0.00 0.00 0.00 0.00 0.00 0.00 0.00 0.00 0.00 0.00 0.00 0.00 0.00 0.00 0.00 0.00 0.00 0.00 0.00 0.00 0.00 0.00 0.00 0.00 0.00 0.00 0.00 0.00 0.01
0.00 0.00 0.00 0.00 0.00 0.00 0.00 0.00 0.00 0.00 0.00 0.00 0.00 0.00 0.00 0.00 0.00 0.00 0.00 0.00 0.00 0.00 0.00 0.00 0.00 0.00 0.00 0.00 0.00 0.00 0.00 0.00 0.00 0.00 0.00 0.00 0.00 0.00 0.00 0.00 0.00 0.01 0.01
0.00 0.00 0.00 0.00 0.00 0.00 0.00 0.00 0.00 0.00 0.00 0.00 0.00 0.00 0.00 0.00 0.00 0.00 0.00 0.00 0.00 0.00 0.00 0.00 0.00 0.00 0.00 0.00 0.00 0.00 0.00 0.00 0.00 0.00 0.00 0.00 0.01 0.01 0.01 0.00 0.00 0.00 0.01
0.00 0.00 0.00 0.00 0.00 0.00 0.00 0.00 0.00 0.00 0.00 0.00 0.00 0.00 0.00 0.00 0.00 0.00 0.00 0.00 0.00 0.00 0.00 0.00 0.00 0.00 0.00 0.00 0.00 0.00 0.00 0.00 0.00 0.00 0.00 0.00 0.01 0.01 0.01 0.00 0.01 0.01 0.01
0.00 0.00 0.00 0.00 0.00 0.00 0.00 0.00 0.00 0.00 0.00 0.00 0.00 0.00 0.00 0.00 0.00 0.00 0.00 0.00 0.00 0.00 0.00 0.00 0.00 0.00 0.00 0.00 0.00 0.00 0.00 0.00 0.00 0.00 0.00 0.00 0.01 0.01 0.01 0.01 0.01 0.01 0.01
0.00 0.00 0.00 0.00 0.00 0.00 0.00 0.00 0.00 0.00 0.00 0.00 0.00 0.00 0.00 0.00 0.00 0.00 0.00 0.00 0.00 0.00 0.00 0.00 0.00 0.00 0.00 0.00 0.00 0.00 0.00 0.00 0.00 0.00 0.00 0.00 0.01 0.01 0.01 0.01 0.01 0.01 0.01
0.00 0.00 0.00 0.00 0.00 0.00 0.00 0.00 0.00 0.00 0.00 0.00 0.00 0.00 0.00 0.00 0.00 0.00 0.00 0.00 0.00 0.00 0.00 0.00 0.00 0.00 0.00 0.00 0.00 0.00 0.00 0.00 0.00 0.00 0.01 0.01 0.01 0.01 0.01 0.01 0.01 0.01 0.01
0.00 0.00 0.00 0.00 0.00 0.00 0.00 0.00 0.00 0.00 0.00 0.00 0.00 0.00 0.00 0.00 0.00 0.00 0.00 0.00 0.00 0.00 0.00 0.00 0.00 0.00 0.00 0.00 0.00 0.00 0.00 0.00 0.00 0.01 0.01 0.01 0.01 0.01 0.01 0.01 0.01 0.02 0.03
0.00 0.00 0.00 0.00 0.00 0.00 0.00 0.00 0.00 0.00 0.00 0.00 0.00 0.00 0.00 0.00 0.00 0.00 0.00 0.00 0.00 0.00 0.00 0.00 0.00 0.00 0.00 0.00 0.00 0.01 0.01 0.01 0.01 0.02 0.02 0.01 0.01 0.01 0.02 0.02 0.03 0.03 0.04
0.00 0.00 0.00 0.00 0.00 0.00 0.00 0.00 0.00 0.00 0.00 0.00 0.00 0.00 0.00 0.00 0.00 0.00 0.00 0.00 0.00 0.00 0.00 0.00 0.00 0.00 0.00 0.00 0.00 0.01 0.01 0.02 0.02 0.02 0.02 0.03 0.03 0.03 0.04 0.05 0.04 0.04 0.04
0.00 0.00 0.00 0.00 0.00 0.00 0.00 0.00 0.00 0.00 0.00 0.00 0.00 0.00 0.00 0.00 0.00 0.00 0.00 0.00 0.00 0.00 0.00 0.00 0.00 0.00 0.00 0.00 0.00 0.01 0.01 0.02 0.03 0.06 0.07 0.07 0.07 0.06 0.06 0.06 0.04 0.03 0.03
0.00 0.00 0.00 0.00 0.00 0.00 0.00 0.00 0.00 0.00 0.00 0.00 0.00 0.00 0.00 0.00 0.00 0.00 0.00 0.00 0.00 0.00 0.00 0.00 0.00 0.00 0.00 0.00 0.00 0.01 0.01 0.02 0.02 0.03 0.06 0.08 0.07 0.06 0.06 0.06 0.05 0.04 0.03
MSLP
1011.84 1011.29 1010.75 1010.26 1009.84 1009.52 1009.30 1009.20 1009.21 1009.32 1009.52 1009.80 1010.15 1010.55 1011.00 1011.51 1012.06 1012.66 1013.30 1013.97 1014.66 1015.36 1016.04 1016.71 1017.34 1017.94 1018.50 1019.04 1019.55 1020.05 1020.52 1020.97 1021.39 1021.75 1022.06 1022.30 1022.46 1022.54 1022.54 1022.47 1022.35 1022.19 1022.00
1012.25 1011.64 1011.05 1010.51 1010.05 1009.69 1009.44 1009.31 1009.29 1009.38 1009.56 1009.82 1010.16 1010.56 1011.02 1011.54 1012.12 1012.74 1013.42 1014.13 1014.87 1015.60 1016.33 1017.03 1017.69 1018.31 1018.89 1019.42 1019.91 1020.37 1020.79 1021.16 1021.49 1021.76 1021.97 1022.10 1022.16 1022.15 1022.08 1021.94 1021.77 1021.56 1021.33
1012.79 1012.16 1011.54 1010.98 1010.50 1010.12 1009.85 1009.71 1009.67 1009.74 1009.90 1010.14 1010.46 1010.85 1011.30 1011.82 1012.40 1013.03 1013.72 1014.44 1015.19 1015.94 1016.67 1017.38 1018.04 1018.66 1019.22 1019.73 1020.19 1020.59 1020.95 1021.25 1021.49 1021.68 1021.79 1021.84 1021.82 1021.73 1021.59 1021.40 1021.17 1020.92 1020.64
1013.45 1012.83 1012.23 1011.68 1011.21 1010.84 1010.58 1010.43 1010.39 1010.44 1010.59 1010.81 1011.11 1011.47 1011.90 1012.40 1012.95 1013.57 1014.23 1014.93 1015.65 1016.37 1017.08 1017.75 1018.38 1018.96 1019.49 1019.95 1020.35 1020.69 1020.98 1021.21 1021.37 1021.48 1021.52 1021.50 1021.42 1021.28 1021.09 1020.87 1020.61 1020.32 1020.00
1014.21 1013.64 1013.08 1012.58 1012.16 1011.83 1011.59 1011.46 1011.42 1011.48 1011.61 1011.81 1012.09 1012.42 1012.82 1013.28 1013.79 1014.36 1014.97 1015.61 1016.26 1016.92 1017.56 1018.16 1018.72 1019.23 1019.68 1020.07 1020.40 1020.67 1020.88 1021.04 1021.14 1021.18 1021.17 1021.10 1020.99 1020.83 1020.62 1020.38 1020.11 1019.80 1019.45
1014.99 1014.51 1014.05 1013.64 1013.29 1013.01 1012.83 1012.73 1012.71 1012.77 1012.89 1013.08 1013.33 1013.63 1013.99 1014.40 1014.85 1015.35 1015.88 1016.44 1017.00 1017.56 1018.09 1018.60 1019.06 1019.46 1019.82 1020.12 1020.36 1020.55 1020.69 1020.78 1020.82 1020.81 1020.76 1020.67 1020.55 1020.39 1020.19 1019.96 1019.70 1019.39 1019.03
1015.76 1015.39 1015.05 1014.74 1014.49 1014.30 1014.17 1014.12 1014.13 1014.19 1014.31 1014.49 1014.71 1014.98 1015.29 1015.64 1016.03 1016.45 1016.89 1017.35 1017.80 1018.24 1018.65 1019.04 1019.38 1019.67 1019.92 1020.12 1020.27 1020.38 1020.44 1020.47 1020.46 1020.42 1020.35 1020.25 1020.13 1019.99 1019.82 1019.62 1019.38 1019.09 1018.74
1016.44 1016.20 1015.99 1015.80 1015.65 1015.55 1015.50 1015.49 1015.52 1015.60 1015.72 1015.88 1016.07 1016.30 1016.57 1016.86 1017.19 1017.53 1017.88 1018.23 1018.57 1018.89 1019.18 1019.45 1019.67 1019.85 1020.00 1020.10 1020.17 1020.20 1020.19 1020.17 1020.11 1020.04 1019.96 1019.86 1019.75 1019.63 1019.50 1019.33 1019.13 1018.87 1018.54
1017.01 1016.89 1016.80 1016.73 1016.69 1016.67 1016.68 1016.72 1016.77 1016.86 1016.97 1017.10 1017.27 1017.46 1017.68 1017.92 1018.18 1018.45 1018.72 1018.98 1019.22 1019.44 1019.63 1019.79 1019.91 1020.00 1020.06 1020.08 1020.07 1020.04 1019.98 1019.91 1019.82 1019.72 1019.62 1019.52 1019.42 1019.32 1019.21 1019.07 1018.90 1018.68 1018.38
1017.46 1017.45 1017.46 1017.49 1017.54 1017.59 1017.65 1017.72 1017.80 1017.88 1017.97 1018.09 1018.22 1018.37 1018.55 1018.74 1018.94 1019.15 1019.35 1019.53 1019.70 1019.84 1019.95 1020.03 1020.08 1020.11 1020.10 1020.07 1020.01 1019.93 1019.83 1019.72 1019.60 1019.47 1019.35 1019.23 1019.12 1019.02 1018.92 1018.81 1018.66 1018.46 1018.18
1017.80 1017.87 1017.97 1018.08 1018.19 1018.30 1018.40 1018.49 1018.56 1018.64 1018.71 1018.80 1018.90 1019.01 1019.15 1019.29 1019.45 1019.61 1019.75 1019.89 1020.00 1020.09 1020.15 1020.18 1020.19 1020.17 1020.13 1020.06 1019.98 1019.87 1019.74 1019.60 1019.45 1019.29 1019.14 1018.99 1018.86 1018.74 1018.62 1018.50 1018.35 1018.15 1017.89
1018.08 1018.21 1018.36 1018.52 1018.68 1018.82 1018.94 1019.04 1019.11 1019.17 1019.23 1019.28 1019.35 1019.43 1019.53 1019.64 1019.75 1019.87 1019.98 1020.08 1020.16 1020.21 1020.24 1020.25 1020.24 1020.21 1020.15 1020.07 1019.97 1019.85 1019.71 1019.54 1019.36 1019.17 1018.98 1018.80 1018.62 1018.46 1018.30 1018.13 1017.96 1017.74 1017.46
1018.33 1018.49 1018.68 1018.88 1019.06 1019.22 1019.35 1019.44 1019.51 1019.56 1019.59 1019.62 1019.66 1019.72 1019.78 1019.86 1019.94 1020.03 1020.11 1020.18 1020.24 1020.27 1020.29 1020.28 1020.26 1020.22 1020.16 1020.08 1019.98 1019.85 1019.70 1019.52 1019.31 1019.09 1018.86 1018.62 1018.39 1018.17 1017.95 1017.72 1017.49 1017.22 1016.91
1018.58 1018.77 1018.97 1019.18 1019.37 1019.54 1019.67 1019.77 1019.83 1019.87 1019.89 1019.91 1019.93 1019.96 1020.01 1020.06 1020.12 1020.18 1020.23 1020.28 1020.31 1020.32 1020.32 1020.31 1020.27 1020.23 1020.17 1020.09 1019.98 1019.85 1019.69 1019.50 1019.28 1019.03 1018.75 1018.47 1018.18 1017.88 1017.59 1017.29 1016.97 1016.64 1016.26
1018.84 1019.04 1019.25 1019.46 1019.66 1019.83 1019.96 1020.06 1020.13 1020.17 1020.20 1020.21 1020.23 1020.25 1020.27 1020.31 1020.34 1020.37 1020.40 1020.42 1020.42 1020.41 1020.38 1020.34 1020.29 1020.23 1020.16 1020.07 1019.96 1019.83 1019.66 1019.46 1019.22 1018.95 1018.65 1018.32 1017.97 1017.61 1017.24 1016.85 1016.45 1016.03 1015.57
1019.11 1019.31 1019.52 1019.73 1019.93 1020.10 1020.24 1020.35 1020.43 1020.49 1020.53 1020.55 1020.57 1020.59 1020.60 1020.62 1020.63 1020.64 1020.63 1020.61 1020.58 1020.53 1020.46 1020.39 1020.31 1020.22 1020.13 1020.02 1019.90 1019.75 1019.58 1019.37 1019.13 1018.85 1018.52 1018.16 1017.77 1017.35 1016.91 1016.44 1015.94 1015.42 1014.87
1019.34 1019.55 1019.76 1019.97 1020.17 1020.34 1020.50 1020.63 1020.73 1020.80 1020.86 1020.90 1020.93 1020.95 1020.96 1020.97 1020.96 1020.93 1020.89 1020.83 1020.75 1020.66 1020.55 1020.43 1020.31 1020.18 1020.05 1019.92 1019.77 1019.62 1019.44 1019.22 1018.98 1018.69 1018.36 1017.98 1017.55 1017.09 1016.58 1016.03 1015.45 1014.83 1014.17
1019.52 1019.73 1019.94 1020.15 1020.36 1020.54 1020.71 1020.86 1020.98 1021.08 1021.15 1021.21 1021.25 1021.28 1021.28 1021.28 1021.25 1021.19 1021.12 1021.02 1020.89 1020.75 1020.59 1020.42 1020.25 1020.08 1019.92 1019.75 1019.58 1019.41 1019.22 1019.00 1018.75 1018.46 1018.12 1017.73 1017.28 1016.77 1016.21 1015.60 1014.93 1014.21 1013.45
1019.63 1019.85 1020.06 1020.28 1020.48 1020.68 1020.86 1021.02 1021.15 1021.27 1021.36 1021.43 1021.47 1021.50 1021.50 1021.48 1021.43 1021.35 1021.24 1021.10 1020.94 1020.75 1020.55 1020.34 1020.13 1019.92 1019.72 1019.52 1019.32 1019.12 1018.91 1018.68 1018.43 1018.13 1017.78 1017.37 1016.89 1016.35 1015.74 1015.07 1014.33 1013.53 1012.67
1019.66 1019.89 1020.12 1020.34 1020.55 1020.75 1020.93 1021.10 1021.24 1021.36 1021.45 1021.52 1021.56 1021.58 1021.57 1021.53 1021.46 1021.35 1021.22 1021.06 1020.86 1020.65 1020.42 1020.17 1019.93 1019.68 1019.45 1019.21 1018.99 1018.76 1018.52 1018.27 1017.99 1017.67 1017.29 1016.86 1016.35 1015.77 1015.12 1014.38 1013.57 1012.70 1011.77
1019.64 1019.88 1020.12 1020.35 1020.57 1020.77 1020.95 1021.11 1021.25 1021.35 1021.44 1021.49 1021.51 1021.51 1021.48 1021.42 1021.33 1021.20 1021.05 1020.87 1020.66 1020.42 1020.17 1019.91 1019.64 1019.37 1019.11 1018.84 1018.58 1018.32 1018.04 1017.75 1017.43 1017.06 1016.65 1016.16 1015.61 1014.99 1014.28 1013.49 1012.62 1011.69 1010.70
1019.58 1019.84 1020.10 1020.34 1020.56 1020.76 1020.93 1021.08 1021.20 1021.28 1021.34 1021.36 1021.36 1021.33 1021.27 1021.18 1021.07 1020.93 1020.76 1020.57 1020.35 1020.11 1019.85 1019.57 1019.29 1019.00 1018.71 1018.41 1018.11 1017.79 1017.47 1017.11 1016.73 1016.30 1015.82 1015.28 1014.66 1013.98 1013.21 1012.37 1011.47 1010.50 1009.48
1019.50 1019.79 1020.06 1020.31 1020.54 1020.74 1020.90 1021.03 1021.12 1021.18 1021.20 1021.19 1021.15 1021.09 1021.00 1020.89 1020.75 1020.59 1020.41 1020.20 1019.98 1019.73 1019.46 1019.18 1018.88 1018.57 1018.25 1017.91 1017.55 1017.18 1016.79 1016.36 1015.90 1015.39 1014.83 1014.20 1013.52 1012.77 1011.95 1011.07 1010.13 1009.15 1008.12
1019.41 1019.72 1020.02 1020.29 1020.52 1020.71 1020.87 1020.97 1021.04 1021.07 1021.06 1021.02 1020.95 1020.85 1020.73 1020.59 1020.43 1020.25 1020.05 1019.83 1019.59 1019.33 1019.05 1018.75 1018.43 1018.08 1017.72 1017.33 1016.92 1016.47 1016.00 1015.49 1014.94 1014.34 1013.69 1012.99 1012.24 1011.43 1010.56 1009.65 1008.70 1007.72 1006.72
1019.29 1019.64 1019.96 1020.25 1020.49 1020.68 1020.82 1020.91 1020.96 1020.96 1020.93 1020.86 1020.76 1020.64 1020.50 1020.33 1020.15 1019.94 1019.72 1019.48 1019.21 1018.93 1018.61 1018.28 1017.92 1017.53 1017.11 1016.66 1016.18 1015.67 1015.11 1014.52 1013.88 1013.20 1012.47 1011.70 1010.89 1010.03 1009.14 1008.22 1007.28 1006.32 1005.36
1019.16 1019.53 1019.87 1020.16 1020.41 1020.60 1020.74 1020.82 1020.86 1020.85 1020.80 1020.72 1020.61 1020.47 1020.30 1020.12 1019.91 1019.68 1019.42 1019.14 1018.84 1018.50 1018.14 1017.76 1017.34 1016.89 1016.41 1015.90 1015.35 1014.76 1014.13 1013.46 1012.75 1012.01 1011.22 1010.40 1009.55 1008.67 1007.77 1006.86 1005.94 1005.02 1004.10
Thickness
5583 5582 5581 5579 5575 5572 5568 5564 5561 5559 5557 5556 5555 5555 5555 5556 5557 5556 5556 5555 5552 5549 5546 5543 5538 5534 5531 5526 5522 5517 5510 5504 5497 5489 5482 5476 5472 5469 5466 5462 5459 5457 5455
5569 5569 5567 5563 5559 5554 5549 5544 5540 5537 5535 5535 5535 5535 5535 5537 5538 5540 5540 5539 5538 5536 5533 5530 5526 5522 5517 5512 5506 5500 5493 5486 5479 5474 5470 5464 5459 5456 5452 5449 5445 5441 5439
5556 5555 5552 5547 5542 5537 5530 5524 5520 5517 5515 5515 5515 5516 5517 5518 5520 5522 5523 5524 5523 5521 5519 5517 5513 5508 5502 5496 5491 5484 5478 5471 5464 5459 5458 5454 5448 5442 5438 5435 5431 5427 5423
5544 5541 5537 5531 5525 5518 5511 5505 5501 5498 5497 5497 5497 5498 5498 5500 5502 5503 5504 5505 5505 5504 5502 5500 5497 5493 5488 5482 5477 5471 5465 5458 5451 5447 5444 5441 5436 5430 5425 5421 5418 5412 5408
5531 5527 5521 5515 5509 5502 5494 5488 5484 5482 5481 5481 5480 5480 5480 5481 5483 5484 5486 5487 5488 5486 5485 5483 5481 5478 5474 5469 5464 5458 5453 5447 5441 5436 5432 5428 5423 5418 5412 5407 5401 5396 5390
5518 5514 5508 5502 5496 5488 5480 5475 5470 5467 5466 5465 5465 5464 5465 5466 5467 5469 5471 5472 5472 5472 5470 5468 5466 5463 5461 5457 5452 5447 5442 5436 5429 5423 5419 5415 5410 5403 5395 5387 5380 5374 5369
5507 5503 5497 5491 5484 5477 5470 5464 5460 5456 5454 5452 5451 5452 5452 5452 5454 5455 5456 5457 5457 5457 5457 5455 5453 5451 5447 5443 5439 5434 5429 5423 5417 5411 5407 5401 5394 5385 5375 5366 5358 5352 5347
5498 5494 5488 5482 5475 5469 5462 5457 5451 5447 5445 5442 5441 5441 5441 5441 5442 5443 5443 5443 5444 5444 5444 5443 5442 5439 5435 5431 5428 5422 5417 5410 5404 5398 5391 5383 5374 5364 5355 5347 5339 5333 5328
5489 5485 5480 5475 5468 5462 5456 5450 5445 5441 5437 5434 5433 5432 5431 5431 5431 5432 5433 5434 5434 5434 5433 5432 5431 5429 5424 5421 5418 5411 5405 5399 5390 5381 5372 5364 5355 5346 5337 5330 5322 5316 5314
5481 5477 5473 5468 5463 5457 5450 5445 5440 5436 5432 5429 5427 5425 5425 5425 5425 5426 5427 5428 5428 5428 5426 5424 5421 5418 5415 5411 5406 5399 5392 5385 5376 5367 5358 5350 5341 5333 5325 5317 5311 5304 5299
5474 5471 5467 5462 5457 5452 5446 5441 5436 5432 5429 5426 5424 5422 5422 5423 5423 5422 5422 5423 5423 5422 5420 5417 5413 5408 5404 5398 5392 5385 5376 5367 5359 5351 5343 5337 5330 5324 5317 5309 5303 5295 5291
5470 5466 5462 5458 5454 5449 5444 5439 5435 5432 5429 5426 5424 5422 5421 5420 5420 5418 5417 5416 5415 5414 5412 5408 5403 5397 5391 5384 5377 5368 5359 5351 5344 5337 5331 5326 5321 5315 5308 5302 5296 5291 5286
5467 5462 5458 5454 5450 5447 5444 5440 5437 5433 5430 5427 5424 5421 5418 5416 5415 5413 5411 5409 5407 5405 5402 5396 5391 5384 5378 5371 5362 5353 5345 5338 5331 5326 5322 5317 5311 5305 5300 5296 5293 5289 5286
5464 5459 5455 5452 5448 5444 5440 5437 5434 5431 5428 5425 5422 5418 5415 5413 5410 5408 5406 5403 5400 5397 5393 5386 5379 5372 5365 5357 5349 5341 5334 5328 5321 5316 5312 5307 5303 5299 5296 5293 5290 5287 5285
5460 5455 5450 5446 5443 5439 5435 5431 5428 5424 5422 5420 5416 5413 5411 5409 5405 5401 5399 5397 5393 5389 5382 5376 5370 5363 5356 5348 5339 5332 5326 5320 5314 5308 5303 5299 5296 5293 5291 5288 5285 5281 5280
5455 5451 5446 5442 5438 5434 5430 5425 5420 5418 5413 5410 5408 5406 5403 5401 5398 5394 5390 5386 5382 5377 5371 5366 5360 5353 5346 5337 5329 5323 5317 5312 5306 5300 5295 5291 5288 5285 5284 5282 5280 5278 5278
5452 5447 5442 5437 5433 5429 5425 5421 5416 5411 5406 5404 5401 5399 5397 5393 5390 5385 5381 5376 5371 5365 5361 5355 5348 5340 5333 5325 5319 5313 5309 5304 5298 5293 5289 5286 5282 5279 5277 5277 5276 5275 5275
5445 5440 5436 5432 5428 5424 5420 5415 5412 5409 5405 5400 5394 5391 5389 5386 5381 5377 5372 5367 5363 5357 5351 5344 5337 5330 5323 5316 5311 5306 5301 5297 5293 5289 5285 5281 5277 5274 5272 5272 5272 5271 5272
5439 5435 5431 5427 5422 5418 5413 5409 5405 5401 5398 5394 5390 5386 5381 5378 5373 5368 5363 5359 5354 5348 5342 5335 5328 5321 5314 5308 5303 5299 5295 5291 5288 5284 5281 5277 5274 5271 5269 5268 5268 5269 5269
5433 5428 5425 5421 5416 5412 5407 5403 5399 5395 5392 5388 5384 5380 5375 5372 5368 5363 5357 5351 5345 5340 5333 5326 5319 5312 5306 5301 5297 5293 5290 5288 5285 5282 5279 5275 5271 5268 5267 5266 5266 5267 5270
5428 5423 5418 5414 5411 5406 5402 5398 5394 5390 5386 5382 5378 5373 5368 5365 5360 5355 5349 5344 5338 5331 5325 5318 5311 5304 5299 5294 5291 5287 5284 5283 5280 5278 5274 5271 5268 5266 5265 5265 5266 5267 5269
5422 5418 5413 5409 5405 5400 5396 5392 5388 5384 5380 5376 5372 5366 5361 5357 5353 5348 5343 5337 5331 5324 5316 5309 5303 5298 5293 5288 5285 5282 5279 5277 5276 5273 5271 5269 5266 5265 5264 5265 5266 5267 5270
5416 5411 5406 5402 5398 5395 5390 5386 5382 5378 5374 5370 5365 5360 5355 5351 5347 5341 5336 5330 5324 5317 5309 5302 5296 5292 5287 5283 5279 5275 5273 5273 5271 5268 5266 5265 5264 5263 5263 5265 5267 5269 5273
5410 5406 5401 5397 5393 5389 5385 5381 5376 5372 5367 5363 5358 5354 5349 5344 5340 5335 5330 5324 5317 5310 5303 5296 5291 5286 5281 5277 5274 5271 5270 5268 5266 5264 5263 5262 5262 5263 5265 5269 5272 5275 5278
5404 5400 5396 5392 5388 5384 5379 5375 5370 5366 5361 5357 5352 5347 5343 5338 5333 5329 5324 5318 5311 5304 5298 5291 5286 5281 5277 5273 5270 5268 5267 5266 5264 5264 5264 5264 5267 5268 5270 5273 5276 5279 5280
5398 5394 5391 5387 5382 5378 5374 5369 5365 5360 5355 5350 5345 5341 5336 5332 5327 5323 5318 5311 5305 5299 5293 5288 5283 5278 5273 5270 5268 5266 5266 5265 5265 5265 5264 5266 5269 5271 5273 5275 5278 5279 5281